Regional Weather Roundup
Issued by NWS

Home | Current Version | Previous Version | Text Only | Print | Product List | Glossary On
Versions: 1 2 3 4 5 6 7 8 9 10 11 12 13 14 15 16 17 18 19 20 21 22 23 24 25 26 27 28 29 30 31 32 33 34 35 36 37 38 39 40 41 42 43 44 45 46
000
ASPQ40 PGUM 202112
RWRPQ
WEATHER ROUNDUP FOR THE MARIANAS AND MICRONESIA
NATIONAL WEATHER SERVICE TIYAN GU
700 AM CHST SUN DEC 21 2014

GUZ001>004-202200-
MARIANA ISLANDS-

CITY           SKY/WX    TMP DP  RH WIND       PRES   REMARKS
GUAM AIRPORT   PTCLDY    82  75  78 NE14      29.89R
ANDERSEN AFB   DRIZZLE   79  73  83 NE23G29   29.91R
ROTA AIRPORT   MOCLDY    79  75  89 E14       29.91S
TINIAN AP      MOCLDY    81  75  83 E16       29.91R
SAIPAN AP      CLOUDY    81  75  83 E23       29.92R

$$

PMZ161-202200-
REPUBLIC OF PALAU-

CITY           SKY/WX    TMP DP  RH WIND       PRES   REMARKS
KOROR AP       MOCLDY    81  75  83 E8        29.78R
KOROR WSO      MOCLDY    82  75  78 SE9       29.77R

$$

PMZ171>174-202200-
FEDERATED STATES OF MICRONESIA-

CITY           SKY/WX    TMP DP  RH WIND       PRES   REMARKS
YAP AIRPORT    CLOUDY    81  77  89 E8        29.78R
CHUUK AP       CLOUDY    79  75  89 NE14      29.80R
POHNPEI AP     NOT AVBL
POHNPEI WSO    LGT RAIN  81  77  89 SE9       29.82R
KOSRAE AP      NOT AVBL

$$

PMZ181-202200-
REPUBLIC OF THE MARSHALL ISLANDS-

CITY           SKY/WX    TMP DP  RH WIND       PRES   REMARKS
KWAJALEIN AP   MOSUNNY   82  73  74 NE16      29.83R
MAJURO AP      PTSUNNY   84  77  79 E15       29.78  HX  94
MAJURO WSO     PTSUNNY   84  77  79 E13       29.80R HX  94

$$



USA.gov is the U.S. government's official web portal to all federal, state and local government web resources and services.